Location: Campolattaro
(41.2833°N, 14.7333°E)
Time: 00:22:24
(UTC+00:00)

Helios 1A - Pass Details

Date: 19 May 2025
Orbit: 544 x 570 km, 98.3° (Epoch: 03 June)

Event Time Altitude Azimuth Distance (km) Brightness Sun altitude
Rises 19:08:44 0° 19° (NNE) 2,780 6.7 -9.1°
Reaches altitude 10° 19:10:58 10° 26° (NNE) 1,875 5.7 -9.4°
Maximum altitude 19:14:51 44° 100° (E) 786 3.2 -10.0°
Drops below altitude 10° 19:18:41 10° 173° (S) 1,847 5.1 -10.5°
Enters shadow 19:19:50 - 177° (S) 2,305 5.6 -10.7°
